DW9356 Weather Reports


Display with metric or nautical units.
time (UTC)temp
F
wind
direction
speed
MPH
gust
MPH
rain 1hr
in
rain 24hr
in
rain mn
in
humidity
%
barometer
mb
20260906163507 92 81 2.0 7.0 0.00 0.00 0.00 71 1013.9
20260906163238 93 69 2.0 6.0 0.00 0.00 0.00 71 1013.9
20260906162459 93 82 2.0 6.0 0.00 0.00 0.00 71 1013.9
20260906161957 92 44 2.0 5.0 0.00 0.00 0.00 71 1014.0
20260906161451 92 88 2.0 7.0 0.00 0.00 0.00 74 1013.9
20260906160924 91 5 2.0 7.0 0.00 0.00 0.00 75 1013.8
20260906160358 91 227 2.0 7.0 0.00 0.00 0.00 74 1013.9
20260906160120 91 40 3.0 7.0 0.00 0.00 0.00 75 1013.9
20260906155352 91 65 3.0 5.0 0.00 0.00 0.00 75 1014.0
20260906154848 91 32 2.0 6.0 0.00 0.00 0.00 77 1013.9
20260906154345 90 88 1.0 5.0 0.00 0.00 0.00 79 1014.0
20260906154104 89 110 1.0 5.0 0.00 0.00 0.00 80 1014.0
20260906153313 88 69 1.0 4.0 0.00 0.00 0.00 80 1014.1
20260906152811 88 42 1.0 4.0 0.00 0.00 0.00 81 1014.1
20260906152505 88 58 1.0 4.0 0.00 0.00 0.00 82 1014.1
20260906151742 88 81 1.0 5.0 0.00 0.00 0.00 83 1014.0
20260906151239 88 81 2.0 5.0 0.00 0.00 0.00 84 1014.1
20260906150935 87 92 1.0 5.0 0.00 0.00 0.00 85 1014.0
20260906150156 87 94 0.0 3.0 0.00 0.00 0.00 85 1014.1
20260906145654 86 165 0.0 2.0 0.00 0.00 0.00 86 1014.1
20260906145413 86 165 1.0 2.0 0.00 0.00 0.00 87 1014.0
20260906144623 86 171 1.0 3.0 0.00 0.00 0.00 88 1014.0
20260906144121 85 180 1.0 3.0 0.00 0.00 0.00 89 1014.0
20260906143554 84 91 1.0 4.0 0.00 0.00 0.00 90 1014.0
20260906143052 84 98 0.0 4.0 0.00 0.00 0.00 92 1014.0
20260906142547 83 159 1.0 4.0 0.00 0.00 0.00 92 1014.0
20260906142023 83 159 1.0 4.0 0.00 0.00 0.00 92 1014.0
20260906141520 83 159 1.0 3.0 0.00 0.00 0.00 93 1014.0
20260906141247 82 51 1.0 3.0 0.00 0.00 0.00 93 1013.9
20260906140451 82 88 1.0 5.0 0.00 0.00 0.00 94 1013.9
20260906135923 82 84 1.0 5.0 0.00 0.00 0.00 94 1013.8
20260906135423 82 83 1.0 5.0 0.00 0.00 0.00 95 1013.8
20260906134919 81 91 1.0 5.0 0.00 0.00 0.00 95 1013.8
20260906134416 81 91 0.0 5.0 0.00 0.00 0.00 95 1013.8
20260906134135 81 104 1.0 2.0 0.00 0.00 0.00 96 1013.8
20260906133411 81 103 1.0 3.0 0.00 0.00 0.00 96 1013.8
20260906132909 80 104 0.0 3.0 0.00 0.00 0.00 96 1013.7
20260906132610 80 105 0.0 3.0 0.00 0.00 0.00 96 1013.6
20260906131839 80 105 0.0 3.0 0.00 0.00 0.00 96 1013.5
20260906131601 80 105 0.0 1.0 0.00 0.00 0.00 96 1013.5
20260906131039 80 105 0.0 2.0 0.00 0.00 0.00 96 1013.5
20260906130315 79 105 0.0 2.0 0.00 0.00 0.00 96 1013.4
20260906125814 79 105 1.0 2.0 0.00 0.00 0.00 97 1013.4
20260906125310 79 105 1.0 2.0 0.00 0.00 0.00 97 1013.4
20260906124751 79 105 0.0 2.0 0.00 0.00 0.00 97 1013.2
20260906124512 78 105 0.0 1.0 0.00 0.00 0.00 96 1013.1
20260906123751 78 105 0.0 0.0 0.00 0.00 0.00 96 1013.0
20260906123509 78 105 0.0 0.0 0.00 0.00 0.00 96 1013.0
20260906122751 78 105 0.0 3.0 0.00 0.00 0.00 96 1013.0
20260906122225 78 105 0.0 3.0 0.00 0.00 0.00 96 1012.9
20260906121942 78 105 0.0 3.0 0.00 0.00 0.00 96 1012.9
20260906121215 78 105 0.0 3.0 0.00 0.00 0.00 96 1012.8
20260906120646 78 138 0.0 1.0 0.00 0.00 0.00 96 1012.7
20260906120145 78 138 0.0 1.0 0.00 0.00 0.00 96 1012.7
20260906115617 78 139 0.0 0.0 0.00 0.00 0.00 96 1012.6
20260906115113 78 139 0.0 0.0 0.00 0.00 0.00 96 1012.5
20260906114612 78 139 0.0 0.0 0.00 0.00 0.00 96 1012.5
20260906114109 78 139 0.0 0.0 0.00 0.00 0.00 96 1012.4
20260906113542 78 139 0.0 0.0 0.00 0.00 0.00 95 1012.4
20260906113016 78 139 0.0 0.0 0.00 0.00 0.00 95 1012.3
20260906112512 78 139 0.0 0.0 0.00 0.00 0.00 95 1012.3
20260906112205 78 139 0.0 0.0 0.00 0.00 0.00 95 1012.3
20260906111444 78 139 0.0 0.0 0.00 0.00 0.00 95 1012.3
20260906111154 78 139 0.0 0.0 0.00 0.00 0.00 95 1012.3
20260906110437 78 139 0.0 0.0 0.00 0.00 0.00 95 1012.3
20260906110134 78 139 0.0 0.0 0.00 0.00 0.00 95 1012.2
20260906105403 78 139 0.0 0.0 0.00 0.00 0.00 95 1012.2
20260906104858 78 139 0.0 0.0 0.00 0.00 0.00 95 1012.2
20260906104355 78 139 0.0 0.0 0.00 0.00 0.00 95 1012.2
20260906104053 78 139 0.0 0.0 0.00 0.00 0.00 95 1012.1
20260906103326 78 139 0.0 0.0 0.00 0.00 0.00 95 1012.1
20260906102822 79 139 0.0 0.0 0.00 0.00 0.00 95 1012.1
20260906102319 79 139 0.0 0.0 0.00 0.00 0.00 95 1012.0
20260906101816 79 139 0.0 1.0 0.00 0.00 0.00 95 1011.9
20260906101313 79 139 0.0 1.0 0.00 0.00 0.00 95 1011.8
20260906100810 79 139 0.0 0.0 0.00 0.00 0.00 95 1011.8
20260906100307 79 139 0.0 2.0 0.00 0.00 0.00 95 1011.8
20260906095750 79 140 0.0 2.0 0.00 0.00 0.00 95 1011.8
20260906095249 79 142 0.0 1.0 0.00 0.00 0.00 95 1011.8
20260906095008 79 144 0.0 1.0 0.00 0.00 0.00 95 1011.9
20260906094246 79 144 0.0 1.0 0.00 0.00 0.00 95 1011.9
20260906093748 79 144 0.0 0.0 0.00 0.00 0.00 95 1011.9
20260906093221 79 144 0.0 1.0 0.00 0.00 0.00 95 1011.9
20260906092717 79 144 0.0 1.0 0.00 0.00 0.00 95 1011.9
20260906092149 79 145 0.0 0.0 0.00 0.00 0.00 95 1011.8
20260906091646 79 145 0.0 0.0 0.00 0.00 0.00 95 1011.8
20260906091143 79 145 0.0 0.0 0.00 0.00 0.00 95 1011.7
20260906090640 79 145 0.0 0.0 0.00 0.00 0.00 95 1011.8
20260906090128 80 145 0.0 0.0 0.00 0.00 0.00 95 1011.7
20260906085630 80 145 0.0 0.0 0.00 0.00 0.00 95 1011.7
20260906085104 79 145 0.0 0.0 0.00 0.00 0.00 95 1011.6
20260906084804 79 145 0.0 0.0 0.00 0.00 0.00 95 1011.6
20260906084013 79 145 0.0 0.0 0.00 0.00 0.00 95 1011.6
20260906083500 79 145 0.0 0.0 0.00 0.00 0.00 95 1011.6
20260906082958 79 145 0.0 0.0 0.00 0.00 0.00 95 1011.7
20260906082501 80 145 0.0 0.0 0.00 0.00 0.00 95 1011.7
20260906081935 80 145 0.0 0.0 0.00 0.00 0.00 95 1011.8
20260906081854 80 145 0.0 0.0 0.00 0.00 0.00 95 1011.8
20260906080905 80 145 0.0 0.0 0.00 0.00 0.00 95 1011.7
20260906080339 80 145 0.0 0.0 0.00 0.00 0.00 95 1011.7
20260906075813 79 145 0.0 0.0 0.00 0.00 0.00 95 1011.7
20260906075247 79 145 0.0 0.0 0.00 0.00 0.00 95 1011.7
20260906074721 80 145 0.0 0.0 0.00 0.00 0.00 95 1011.8
20260906074153 80 145 0.0 0.0 0.00 0.00 0.00 95 1011.9
20260906073651 80 145 0.0 0.0 0.00 0.00 0.00 95 1012.0
20260906073123 80 145 0.0 0.0 0.00 0.00 0.00 95 1012.0
20260906072620 80 145 0.0 0.0 0.00 0.00 0.00 95 1012.0
20260906072055 80 145 0.0 0.0 0.00 0.00 0.00 95 1012.1
20260906071529 79 145 0.0 0.0 0.00 0.00 0.00 94 1012.1
20260906071001 79 145 0.0 0.0 0.00 0.00 0.00 94 1012.1
20260906070459 79 145 0.0 0.0 0.00 0.00 0.00 94 1012.0
20260906065933 79 145 0.0 0.0 0.00 0.00 0.00 94 1012.1
20260906065647 79 145 0.0 0.0 0.00 0.00 0.00 94 1012.1
20260906064927 79 145 0.0 0.0 0.00 0.00 0.00 94 1012.1
20260906064414 79 145 0.0 0.0 0.00 0.00 0.00 94 1012.1
20260906063916 79 145 0.0 0.0 0.00 0.00 0.00 94 1012.1
20260906063410 79 145 0.0 0.0 0.00 0.00 0.00 94 1012.1
20260906062906 79 145 0.0 0.0 0.00 0.00 0.00 94 1012.2
20260906062339 79 145 0.0 0.0 0.00 0.00 0.00 94 1012.2
20260906062059 79 145 0.0 0.0 0.00 0.00 0.00 94 1012.2
20260906061330 79 145 0.0 0.0 0.00 0.00 0.00 94 1012.2
20260906060827 79 145 0.0 0.0 0.00 0.00 0.00 94 1012.1
20260906060301 79 145 0.0 0.0 0.00 0.00 0.00 94 1012.1
20260906055758 79 145 0.0 0.0 0.00 0.00 0.00 94 1012.1
20260906055254 79 145 0.0 0.0 0.00 0.00 0.00 94 1012.2
20260906054727 79 145 0.0 0.0 0.00 0.00 0.00 94 1012.2
20260906054225 79 145 0.0 0.0 0.00 0.00 0.00 94 1012.2
20260906053722 79 145 0.0 0.0 0.00 0.00 0.00 94 1012.3
20260906053440 79 145 0.0 0.0 0.00 0.00 0.00 94 1012.3
20260906052651 79 145 0.0 0.0 0.00 0.00 0.00 94 1012.2
20260906052149 79 145 0.0 0.0 0.00 0.00 0.00 94 1012.2
20260906051622 79 145 0.0 0.0 0.00 0.00 0.00 93 1012.2
20260906051117 79 145 0.0 0.0 0.00 0.00 0.00 93 1012.1
20260906050817 79 145 0.0 0.0 0.00 0.00 0.00 93 1012.2
20260906050026 79 145 0.0 0.0 0.00 0.00 0.00 93 1012.1
20260906045500 79 145 0.0 0.0 0.00 0.00 0.00 93 1012.2
20260906044954 79 145 0.0 0.0 0.00 0.00 0.00 93 1012.2
20260906044451 79 145 0.0 0.0 0.00 0.00 0.00 93 1012.2
20260906044213 79 145 0.0 0.0 0.00 0.00 0.00 93 1012.1
20260906043419 79 145 0.0 0.0 0.00 0.00 0.00 93 1012.1
20260906043139 79 145 0.0 0.0 0.00 0.00 0.00 93 1012.2
20260906042414 79 145 0.0 0.0 0.00 0.00 0.00 92 1012.2
20260906042129 79 145 0.0 0.0 0.00 0.00 0.00 92 1012.3
20260906041404 79 145 0.0 0.0 0.00 0.00 0.00 92 1012.2
20260906040858 79 145 0.0 0.0 0.00 0.00 0.00 92 1012.2
20260906040355 79 145 0.0 0.0 0.00 0.00 0.00 92 1012.3
20260906035826 79 145 0.0 0.0 0.00 0.00 0.00 92 1012.3
20260906035259 79 145 0.0 0.0 0.00 0.00 0.00 92 1012.4
20260906034753 79 145 0.0 0.0 0.00 0.00 0.00 92 1012.4
20260906034249 79 145 0.0 0.0 0.00 0.00 0.00 92 1012.4
20260906033723 79 145 0.0 0.0 0.00 0.00 0.00 91 1012.4
20260906033218 79 144 0.0 1.0 0.00 0.00 0.00 91 1012.3
20260906032652 79 145 0.0 1.0 0.00 0.00 0.00 91 1012.4
20260906032345 80 145 0.0 1.0 0.00 0.00 0.00 91 1012.5
20260906031558 80 144 0.0 1.0 0.00 0.00 0.00 91 1012.4
20260906031054 80 144 0.0 2.0 0.00 0.00 0.00 91 1012.3
20260906030546 80 144 0.0 2.0 0.00 0.00 0.00 91 1012.2
20260906030044 80 140 0.0 1.0 0.00 0.00 0.00 91 1012.1
20260906025517 80 140 0.0 1.0 0.00 0.00 0.00 91 1012.1
20260906024950 80 139 0.0 2.0 0.00 0.00 0.00 91 1012.0
20260906024447 80 76 0.0 3.0 0.00 0.00 0.00 91 1012.0
20260906024204 80 74 0.0 3.0 0.00 0.00 0.00 91 1011.9
20260906023441 80 98 0.0 1.0 0.00 0.00 0.00 91 1011.9
20260906022914 80 98 0.0 1.0 0.00 0.00 0.00 91 1011.8
20260906022412 80 98 0.0 3.0 0.00 0.00 0.00 91 1011.7
20260906022325 80 90 0.0 3.0 0.00 0.00 0.00 91 1011.7
20260906021333 80 96 1.0 7.0 0.00 0.00 0.00 91 1011.6
20260906020836 80 68 1.0 7.0 0.00 0.00 0.00 91 1011.7
20260906020310 80 46 1.0 6.0 0.00 0.00 0.00 91 1011.6
20260906015758 80 154 0.0 6.0 0.00 0.00 0.00 91 1011.5
20260906015255 81 117 0.0 2.0 0.00 0.00 0.00 91 1011.4
20260906014730 81 157 0.0 2.0 0.00 0.00 0.00 91 1011.3
20260906014205 81 163 0.0 2.0 0.00 0.00 0.00 91 1011.3
20260906013704 81 163 0.0 2.0 0.00 0.00 0.00 91 1011.2
20260906013151 81 71 0.0 1.0 0.00 0.00 0.00 91 1011.2
20260906012649 81 71 0.0 2.0 0.00 0.00 0.00 91 1011.1
20260906012123 81 69 0.0 2.0 0.00 0.00 0.00 91 1011.1
20260906011558 81 69 0.0 2.0 0.00 0.00 0.00 91 1011.1
20260906011030 81 69 0.0 2.0 0.00 0.00 0.00 91 1011.1
20260906010528 81 76 0.0 1.0 0.00 0.00 0.00 91 1011.0
20260906010222 81 78 0.0 2.0 0.00 0.00 0.00 90 1010.9
20260906005457 81 75 0.0 2.0 0.00 0.00 0.00 90 1011.0
20260906004930 82 75 0.0 2.0 0.00 0.00 0.00 90 1011.1
20260906004428 82 97 0.0 3.0 0.00 0.00 0.00 90 1011.3
20260906003900 82 100 1.0 3.0 0.00 0.00 0.00 90 1011.4
20260906003358 82 63 0.0 3.0 0.00 0.00 0.00 89 1011.4
20260906002846 82 58 1.0 3.0 0.00 0.00 0.00 89 1011.5
20260906002347 82 72 1.0 3.0 0.00 0.00 0.00 88 1011.5
20260906001822 82 34 0.0 3.0 0.00 0.00 0.00 88 1011.5
20260906001255 82 80 0.0 2.0 0.00 0.00 0.00 87 1011.5
20260906000751 83 92 1.0 2.0 0.00 0.00 0.00 86 1011.5
20260906000226 83 82 1.0 3.0 0.00 0.00 0.00 85 1011.5
20260905235721 83 85 1.0 6.0 0.00 0.00 0.00 84 1011.6
20260905235219 83 94 1.0 6.0 0.00 0.00 0.00 83 1011.7
20260905234715 84 99 2.0 8.0 0.00 0.00 0.00 81 1011.8
20260905234150 84 88 2.0 8.0 0.00 0.00 0.00 79 1011.8
20260905233622 85 100 1.0 6.0 0.00 0.00 0.00 77 1011.9
20260905233119 85 38 1.0 5.0 0.00 0.00 0.00 76 1011.9
20260905232554 85 98 1.0 5.0 0.00 0.00 0.00 76 1011.9
20260905232028 85 83 1.0 4.0 0.00 0.00 0.00 76 1011.7
20260905231501 85 74 1.0 4.0 0.00 0.00 0.00 76 1011.6
20260905231213 85 72 1.0 4.0 0.00 0.00 0.00 76 1011.6
20260905230456 85 159 1.0 3.0 0.00 0.00 0.00 76 1011.6
20260905225925 85 253 0.0 2.0 0.00 0.00 0.00 76 1011.6
20260905225421 85 253 0.0 2.0 0.00 0.00 0.00 75 1011.6
20260905224856 85 253 1.0 2.0 0.00 0.00 0.00 75 1011.5
20260905224551 85 253 1.0 2.0 0.00 0.00 0.00 75 1011.4
20260905223826 85 265 1.0 6.0 0.00 0.00 0.00 74 1011.5
20260905223301 85 294 2.0 9.0 0.00 0.00 0.00 73 1011.5
20260905222801 86 96 2.0 8.0 0.00 0.00 0.00 72 1011.5
20260905222229 86 35 3.0 7.0 0.00 0.00 0.00 74 1011.3
20260905221726 87 26 3.0 10.0 0.00 0.00 0.00 73 1011.2
20260905221158 88 38 3.0 10.0 0.00 0.00 0.00 74 1011.4
20260905220656 89 22 4.0 10.0 0.00 0.00 0.00 72 1011.3
20260905220350 89 92 2.0 10.0 0.00 0.00 0.00 71 1011.3
20260905215625 89 98 1.0 6.0 0.00 0.00 0.00 71 1011.2
20260905215122 89 155 1.0 6.0 0.00 0.00 0.00 72 1011.0
20260905214619 89 136 2.0 7.0 0.00 0.00 0.00 71 1011.1
20260905214052 89 146 2.0 7.0 0.00 0.00 0.00 70 1011.0
20260905213547 90 159 2.0 5.0 0.00 0.00 0.00 70 1010.9
20260905213309 90 137 2.0 7.0 0.00 0.00 0.00 70 1011.0
20260905212542 90 138 3.0 7.0 0.00 0.00 0.00 71 1011.1
20260905212522 90 128 3.0 9.0 0.00 0.00 0.00 70 1011.4
20260905211513 91 115 3.0 9.0 0.00 0.00 0.00 69 1011.4
20260905211009 92 155 3.0 12.0 0.00 0.00 0.00 68 1011.4
20260905210502 93 117 2.0 12.0 0.00 0.00 0.00 67 1011.3
20260905205951 93 155 2.0 6.0 0.00 0.00 0.00 66 1011.2
20260905205450 94 144 2.0 6.0 0.00 0.00 0.00 65 1011.2
20260905205214 95 157 1.0 4.0 0.00 0.00 0.00 64 1011.2
20260905204427 94 136 1.0 4.0 0.00 0.00 0.00 62 1011.1
20260905203900 94 320 1.0 3.0 0.00 0.00 0.00 60 1011.1
20260905203329 94 321 1.0 4.0 0.00 0.00 0.00 60 1011.1
20260905202825 94 71 1.0 4.0 0.00 0.00 0.00 62 1011.2
20260905202259 94 32 2.0 4.0 0.00 0.00 0.00 61 1011.4
20260905201755 95 5 2.0 4.0 0.00 0.00 0.00 61 1011.4
20260905201228 95 81 2.0 5.0 0.00 0.00 0.00 61 1011.3
20260905200948 95 329 1.0 5.0 0.00 0.00 0.00 60 1011.4
20260905200200 95 55 1.0 6.0 0.00 0.00 0.00 61 1011.5
20260905195633 96 82 2.0 6.0 0.00 0.00 0.00 61 1011.6
20260905195129 96 90 2.0 5.0 0.00 0.00 0.00 60 1011.6
20260905194829 96 86 2.0 5.0 0.00 0.00 0.00 61 1011.6
20260905194033 96 306 2.0 5.0 0.00 0.00 0.00 59 1011.6
20260905193507 97 22 2.0 5.0 0.00 0.00 0.00 60 1011.8
20260905193002 97 163 2.0 3.0 0.00 0.00 0.00 61 1011.8
20260905192459 96 126 1.0 3.0 0.00 0.00 0.00 57 1011.9
20260905191956 96 198 2.0 5.0 0.00 0.00 0.00 60 1012.0
20260905191453 96 120 2.0 5.0 0.00 0.00 0.00 59 1012.2
20260905190928 96 200 1.0 5.0 0.00 0.00 0.00 61 1012.2
20260905190400 95 268 2.0 6.0 0.00 0.00 0.00 62 1012.2
20260905185833 93 302 2.0 6.0 0.00 0.00 0.00 63 1012.3
20260905185309 94 275 1.0 4.0 0.00 0.00 0.00 61 1012.3
20260905184742 93 340 2.0 4.0 0.00 0.00 0.00 65 1012.3
20260905184505 93 310 1.0 4.0 0.00 0.00 0.00 63 1012.4
20260905183713 94 285 1.0 4.0 0.00 0.00 0.00 64 1012.5
20260905183209 94 180 1.0 3.0 0.00 0.00 0.00 65 1012.5
20260905182708 93 277 1.0 3.0 0.00 0.00 0.00 65 1012.6
20260905182206 92 295 1.0 3.0 0.00 0.00 0.00 65 1012.7
20260905181639 93 277 1.0 3.0 0.00 0.00 0.00 64 1012.9
20260905181136 93 183 1.0 3.0 0.00 0.00 0.00 65 1013.0
20260905180636 93 336 1.0 3.0 0.00 0.00 0.00 67 1013.1
20260905180138 92 150 0.0 2.0 0.00 0.00 0.00 67 1013.3
20260905175831 91 236 0.0 2.0 0.00 0.00 0.00 69 1013.4
20260905175108 90 236 0.0 2.0 0.00 0.00 0.00 69 1013.5
20260905174542 90 234 0.0 2.0 0.00 0.00 0.00 71 1013.6
20260905174038 90 235 0.0 2.0 0.00 0.00 0.00 70 1013.6
20260905173511 90 234 1.0 2.0 0.00 0.00 0.00 71 1013.7
20260905173219 90 261 1.0 2.0 0.00 0.00 0.00 72 1013.8
20260905172418 90 288 1.0 4.0 0.00 0.00 0.00 70 1013.8
20260905171919 91 309 1.0 4.0 0.00 0.00 0.00 68 1013.8
20260905171359 91 329 1.0 3.0 0.00 0.00 0.00 68 1013.8
20260905170822 91 302 1.0 4.0 0.00 0.00 0.00 68 1013.9
20260905170321 92 312 0.0 4.0 0.00 0.00 0.00 68 1013.9
20260905165754 92 5 1.0 4.0 0.00 0.00 0.00 69 1013.9
20260905165514 92 97 1.0 4.0 0.00 0.00 0.00 70 1014.1
20260905164749 92 92 2.0 4.0 0.00 0.00 0.00 71 1014.1
20260905164223 91 306 1.0 4.0 0.00 0.00 0.00 70 1014.0